Location: Biltmore Gardens
(41.6070°N, 83.4666°W)
Time: 08:43:55
(UTC+00:00)

Cosmos 2344 - Pass Details

Date: 27 October 2020
Orbit: 1246 x 2997 km, 63.3° (Epoch: 03 December)

Event Time Altitude Azimuth Distance (km) Brightness Sun altitude
Exits shadow 11:27:22 - 293° (WNW) 3,512 5.2 -6.8°
Reaches altitude 10° 11:28:30 10° 300° (WNW) 3,262 5.1 -6.6°
Maximum altitude 11:33:49 19° 345° (NNW) 2,757 5.1 -5.7°
Drops below altitude 10° 11:39:47 10° 29° (NNE) 3,706 6.2 -4.6°
Sets 11:44:25 0° 46° (NE) 4,968 7.2 -3.7°
